sat.trackr.live / text

‹ back to catalog

IRNSS-1A

NORAD 39199 · 2013-034A

PAYLOAD ACTIVE UNKNOWN

§ Identity

Operator
Country
IND
Launch date
2013-07-01
Launch site
SRILR
Launch vehicle
Mass (kg)
RCS (m²)
3.48

Purposes: comms, nav

External: N2YO · Heavens-Above · Gunter

§ Orbital elements

Epoch: 2026-05-22T20:37:38.469792Z

Period
1,435.98 min
Inclination
35.6649°
Eccentricity
0.0016618
Mean motion
1.00280263 rev/d
Perigee alt
35,714.2 km
Apogee alt
35,854.3 km
Semi-major
42,162.4 km
B*
0.0000e+0
RAAN
64.2334°
Arg perigee
185.3754°
Mean anomaly
355.4646°
Rev number
4,711

§ Raw data

IRNSS-1A1 39199U 13034A   26142.85947303  .00000059  00000+0  00000+0 0  99982 39199  35.6649  64.2334 0016618 185.3754 355.4646  1.00280263 47111

JSON: /api/v1/satellites/39199 · /tle

For live sub-satellite position, see the globe view (requires WebGL).

§ Visibility from observer

Set your observer location to see the next 7 days of passes ≥ 10°. The values pass through the URL so the page stays shareable.

No JS? Fill the form by hand. The geolocation button needs JavaScript.